Satellite: NO-44
Catalog number: 26931
Epoch time:      10027.72248433
Element set:    0374
Inclination:      067.0498 deg
RA of node:       205.8671 deg
Eccentricity:    0.0006724
Arg of perigee:   265.3986 deg
Mean anomaly:     094.6353 deg
Mean motion:   14.29580133 rev/day
Decay rate:     -.00000000 rev/day^2
Epoch rev:           43467
Checksum:              301

Satellite: SO-50
Catalog number: 27607
Epoch time:      10028.55357261
Element set:      89
Inclination:      064.5580 deg
RA of node:       060.6231 deg
Eccentricity:    0.0040808
Arg of perigee:   140.2032 deg
Mean anomaly:     220.2076 deg
Mean motion:   14.71493313 rev/day
Decay rate:       -1.3e-07 rev/day^2
Epoch rev:           38183
Checksum:              261

Satellite: CO-55
Catalog number: 27844
Epoch time:      10027.59184184
Element set:    0767
Inclination:      098.7120 deg
RA of node:       038.5732 deg
Eccentricity:    0.0009287
Arg of perigee:   214.0771 deg
Mean anomaly:     145.9812 deg
Mean motion:   14.20680137 rev/day
Decay rate:        1.7e-07 rev/day^2
Epoch rev:           34112
Checksum:              300

Satellite: CO-57
Catalog number: 27848
Epoch time:      10028.51676322
Element set:     718
Inclination:      098.7172 deg
RA of node:       038.5592 deg
Eccentricity:    0.0009219
Arg of perigee:   214.2185 deg
Mean anomaly:     145.8399 deg
Mean motion:   14.20476630 rev/day
Decay rate:        7.0e-08 rev/day^2
Epoch rev:           34121
Checksum:              312

Satellite: AO-51
Catalog number: 28375
Epoch time:      10027.57713359
Element set:    0590
Inclination:      098.0548 deg
RA of node:       029.1313 deg
Eccentricity:    0.0083586
Arg of perigee:   163.4352 deg
Mean anomaly:     196.9603 deg
Mean motion:   14.40666722 rev/day
Decay rate:        9.0e-08 rev/day^2
Epoch rev:           29326
Checksum:              317

Satellite: CO-56
Catalog number: 28941
Epoch time:      09297.68475575
Element set:     556
Inclination:      098.0955 deg
RA of node:       138.9518 deg
Eccentricity:    0.0011688
Arg of perigee:   319.8691 deg
Mean anomaly:     040.7485 deg
Mean motion:   16.46998778 rev/day
Decay rate:  1.4491492e-01 rev/day^2
Epoch rev:           20790
Checksum:              407

Satellite: GENESAT1
Catalog number: 29655
Epoch time:      10028.86576959
Element set:     927
Inclination:      040.0198 deg
RA of node:       202.9135 deg
Eccentricity:    0.0004943
Arg of perigee:   011.1715 deg
Mean anomaly:     348.9213 deg
Mean motion:   15.73083987 rev/day
Decay rate:     2.7706e-04 rev/day^2
Epoch rev:           17792
Checksum:              328

Satellite: CP3
Catalog number: 31129
Epoch time:      10027.86578362
Element set:    0493
Inclination:      097.9613 deg
RA of node:       074.8180 deg
Eccentricity:    0.0101448
Arg of perigee:   309.4085 deg
Mean anomaly:     049.8137 deg
Mean motion:   14.52203425 rev/day
Decay rate:        5.7e-07 rev/day^2
Epoch rev:           14749
Checksum:              307

Satellite: CO-65
Catalog number: 32785
Epoch time:      10027.28701970
Element set:    0589
Inclination:      097.9146 deg
RA of node:       094.0481 deg
Eccentricity:    0.0015438
Arg of perigee:   027.1276 deg
Mean anomaly:     333.0739 deg
Mean motion:   14.81575077 rev/day
Decay rate:       3.75e-06 rev/day^2
Epoch rev:           09462
Checksum:              329

Satellite: KKS-1
Catalog number: 33493
Epoch time:      10028.79746189
Element set:     159
Inclination:      098.0708 deg
RA of node:       147.2541 deg
Eccentricity:    0.0019139
Arg of perigee:   230.0463 deg
Mean anomaly:     129.9066 deg
Mean motion:   14.80832712 rev/day
Decay rate:       3.86e-06 rev/day^2
Epoch rev:            5485
Checksum:              315

Satellite: SOHLA-1
Catalog number: 33496
Epoch time:      10028.77641441
Element set:      11
Inclination:      098.0467 deg
RA of node:       139.7618 deg
Eccentricity:    0.0005568
Arg of perigee:   289.8317 deg
Mean anomaly:     070.2297 deg
Mean motion:   14.69465893 rev/day
Decay rate:        6.9e-07 rev/day^2
Epoch rev:            5440
Checksum:              325

/EX
SB KEPS @ AMSAT  $ORB10028.W
Orbital Elements  10028.WEATHER

HR AMSAT ORBITAL ELEMENTS FOR WEATHER SATELLITES
FROM WA5QGD FORT WORTH,TX January 28, 2010
Send Subscribe/unsubscribe to KEPS at 
http://www.amsat.org/mailman/listinfo/keps
BID: ORB10028.W
TO ALL RADIO AMATEURS BT

Satellite: NOAA-10
Catalog number: 16969
Epoch time:      10028.45028057
Element set:     935
Inclination:      098.6729 deg
RA of node:       058.6303 deg
Eccentricity:    0.0011436
Arg of perigee:   259.1069 deg
Mean anomaly:     100.8826 deg
Mean motion:   14.27405194 rev/day
Decay rate:        5.2e-07 rev/day^2
Epoch rev:           21564
Checksum:              302

Satellite: NOAA-11
Catalog number: 19531
Epoch time:      10028.29547251
Element set:     951
Inclination:      098.7739 deg
RA of node:       119.6915 deg
Eccentricity:    0.0011451
Arg of perigee:   183.4416 deg
Mean anomaly:     176.6710 deg
Mean motion:   14.14913933 rev/day
Decay rate:       2.61e-06 rev/day^2
Epoch rev:           10135
Checksum:              291

